CST,Max TemperatureF,Mean TemperatureF,Min TemperatureF,Max Dew PointF,MeanDew PointF,Min DewpointF,Max Humidity, Mean Humidity, Min Humidity, Max Sea Level PressureIn, Mean Sea Level PressureIn, Min Sea Level PressureIn, Max VisibilityMiles, Mean VisibilityMiles, Min VisibilityMiles, Max Wind SpeedMPH, Mean Wind SpeedMPH, Max Gust SpeedMPH,PrecipitationIn, CloudCover, Events, WindDirDegrees
2012-2-1,36,33,29,36,32,28,100,95,89,30.18,30.10,30.00,4,1,0,17,5,21,0.00,8,Fog,223
2012-2-2,47,35,22,36,27,20,100,80,60,30.40,30.25,30.15,10,4,0,8,2,9,0.00,1,Fog,129
2012-2-3,32,31,29,30,29,28,100,96,92,30.46,30.40,30.36,4,2,0,20,11,23,0.00,8,Fog,62
2012-2-4,39,33,26,30,27,24,100,85,70,30.39,30.34,30.27,10,6,2,22,13,24,0.00,4,,13
2012-2-5,29,28,26,27,25,24,100,93,85,30.41,30.35,30.26,8,4,1,17,8,21,0.00,8,,323
2012-2-6,41,33,24,30,25,23,100,82,64,30.26,30.18,30.11,10,4,0,15,8,17,0.00,4,Fog,250
2012-2-7,32,28,24,28,22,14,92,77,62,30.51,30.42,30.23,10,10,7,22,13,24,0.00,7,,22
2012-2-8,30,20,9,13,9,3,84,60,36,30.51,30.44,30.34,10,10,10,12,7,15,0.00,1,,288
2012-2-9,36,23,10,26,19,7,88,74,59,30.33,30.12,29.96,10,8,5,21,12,25,0.00,4,,235
2012-2-10,27,17,6,21,4,-6,92,71,49,30.56,30.21,29.97,10,10,7,31,22,38,T,5,,332
2012-2-11,21,11,0,-4,-7,-11,69,49,28,30.67,30.60,30.52,10,10,10,29,19,35,0.00,0,,314
2012-2-12,32,18,4,6,-1,-4,76,49,21,30.54,30.39,30.16,10,10,10,17,10,20,0.00,0,,247
2012-2-13,29,23,16,28,24,8,100,75,50,30.10,29.84,29.74,10,3,1,18,10,25,0.05,8,Snow,176
2012-2-14,36,29,21,30,25,20,92,85,78,29.88,29.79,29.74,8,5,2,15,8,21,0.01,7,,231
2012-2-15,46,35,23,36,29,20,96,83,70,30.05,29.95,29.89,5,3,2,14,6,16,0.00,6,,26
2012-2-16,39,31,23,30,25,20,100,76,52,30.17,30.11,30.04,10,6,0,21,10,24,0.00,2,Fog,285
2012-2-17,42,32,22,28,22,17,88,69,49,30.19,30.09,30.00,10,10,9,23,13,28,0.00,3,,278
2012-2-18,36,26,15,19,16,12,84,64,44,30.30,30.23,30.20,10,10,10,12,5,16,0.00,0,,283
2012-2-19,42,28,13,24,19,10,88,67,46,30.19,30.14,30.07,10,10,10,16,8,23,0.00,0,,171
2012-2-20,43,34,24,31,26,18,92,71,49,30.14,29.87,29.64,10,6,0,32,18,39,0.03,5,Fog-Rain-Snow,146
2012-2-21,40,33,26,32,28,23,92,78,64,29.71,29.64,29.55,10,8,2,30,16,36,T,6,Snow,254
2012-2-22,45,34,22,32,27,20,96,73,49,29.63,29.49,29.42,10,9,2,14,3,15,T,5,Snow,261
2012-2-23,39,31,22,30,27,20,92,81,69,29.68,29.56,29.43,10,6,1,18,9,23,0.04,7,Snow,38
2012-2-24,30,23,16,27,19,9,85,71,57,30.12,29.90,29.66,10,8,2,33,21,39,T,7,Snow,315
2012-2-25,27,19,11,18,12,6,84,76,67,30.30,30.20,30.06,10,10,7,30,12,36,T,2,Snow,273
2012-2-26,46,33,20,31,20,15,77,64,51,30.13,29.90,29.74,10,10,10,41,24,53,0.00,0,,221
2012-2-27,35,26,17,21,14,10,88,68,47,30.49,30.39,30.16,10,10,10,24,11,30,0.00,4,,297
2012-2-28,37,31,24,35,29,20,92,81,69,30.39,29.90,29.49,10,5,2,25,16,32,0.39,8,Rain-Thunderstorm,125
2012-2-29,42,37,32,39,32,28,92,87,82,29.74,29.33,29.20,10,4,0,31,22,41,0.44,8,Fog-Rain-Snow-Thunderstorm,228